Statesville, NC

9:54 PM EST on December 13, 2019 (GMT -0500)
Statesville Municipal

Weather History for KSVH - November, 2019

Change the Weather History Date:

Tuesday, November 12, 2019

  Actual Average (WUND) Record (WUND)
Temperature  
Mean Temperature 42 °F -  
Max Temperature 57 °F - - (-1)
Min Temperature 26 °F - - (-1)
Degree Days  
Heating Degree Days 24    
Moisture  
Dew Point 31 °F    
Average Humidity 68    
Maximum Humidity 97    
Minimum Humidity 37    
Precipitation  
Precipitation 0.32 in - - ()
Sea Level Pressure  
Sea Level Pressure 30.03 in    
Wind  
Wind Speed 7 mph (NNW)    
Max Wind Speed 18 mph    
Max Gust Speed 24 mph    
Visibility 10 miles    
Events Rain    
Averages and records for this station are not official NWS values.
T = Trace of Precipitation, MM = Missing Value Source: NWS Daily Summary

Daily Weather History Graph

Daily Weather History Graph

Search for Another Location

Airport or City:

Astronomy

Nov. 12, 2019 Rise Set
Actual Time 6:56 AM EST 5:18 PM EST
Civil Twilight 6:29 AM EST 5:45 PM EST
Nautical Twilight 5:58 AM EST 6:16 PM EST
Astronomical Twilight 5:28 AM EST 6:46 PM EST
Moon 5:44 PM EST (11/12) 6:48 AM EST (11/12)
Length of Visible Light 11h 16m
Length of Day
10h 22m
Full, 100% of the Moon is Illuminated
Nov 12
Full
Nov 19
Last Quarter
Nov 26
New
Dec 4
First Quarter
Dec 12
Full

Hourly Weather History & Observations

Time (EST) Temp. Windchill Dew Point Humidity Pressure Visibility Wind Dir Wind Speed Gust Speed Precip Events Conditions
12:15 AM 57.2 °F - 44.1 °F 62% 29.94 in 10.0 mi SW 8.1 mph 16.1 mph N/A   Mostly Cloudy
12:35 AM 56.8 °F - 44.4 °F 63% 29.94 in 10.0 mi SW 9.2 mph - N/A   Overcast
12:55 AM 56.7 °F - 44.6 °F 64% 29.94 in 10.0 mi SW 8.1 mph - N/A   Overcast
1:15 AM 56.3 °F - 45.3 °F 67% 29.93 in 10.0 mi SW 8.1 mph - N/A Rain Light Rain
1:35 AM 55.9 °F - 45.0 °F 67% 29.92 in 10.0 mi SSW 6.9 mph - N/A   Overcast
1:55 AM 55.9 °F - 45.1 °F 67% 29.92 in 10.0 mi SW 6.9 mph - N/A   Mostly Cloudy
2:15 AM 56.3 °F - 45.3 °F 67% 29.90 in 10.0 mi SW 8.1 mph - N/A   Overcast
2:35 AM 56.1 °F - 45.9 °F 68% 29.90 in 10.0 mi SW 8.1 mph - N/A   Overcast
2:55 AM 55.9 °F - 46.0 °F 69% 29.90 in 10.0 mi WSW 8.1 mph - N/A   Overcast
3:15 AM 55.6 °F - 46.8 °F 72% 29.89 in 10.0 mi SW 5.8 mph - N/A Rain Light Rain
3:35 AM 55.2 °F - 47.3 °F 75% 29.88 in 10.0 mi WSW 3.5 mph - N/A   Light Drizzle
3:55 AM 54.1 °F - 47.5 °F 78% 29.87 in 10.0 mi Calm Calm - N/A   Light Drizzle
4:15 AM 53.6 °F - 48.4 °F 82% 29.87 in 10.0 mi WSW 3.5 mph - N/A Rain Light Rain
4:35 AM 52.9 °F - 48.4 °F 85% 29.86 in 10.0 mi Calm Calm - N/A Rain Rain
4:55 AM 52.7 °F - 48.4 °F 85% 29.86 in 10.0 mi SSW 3.5 mph - N/A   Drizzle
5:15 AM 52.5 °F - 48.4 °F 86% 29.85 in 10.0 mi SSW 3.5 mph - N/A   Light Drizzle
5:55 AM 52.5 °F - 49.1 °F 88% 29.86 in 10.0 mi Calm Calm - 0.01 in Rain Light Rain
6:15 AM 52.2 °F - 50.2 °F 93% 29.87 in 10.0 mi Calm Calm - 0.01 in Rain Light Rain
6:35 AM 51.6 °F - 50.2 °F 95% 29.88 in 10.0 mi Calm Calm - 0.03 in Rain Light Rain
6:55 AM 51.4 °F - 50.0 °F 95% 29.88 in 7.0 mi Calm Calm - 0.05 in Rain Light Rain
7:15 AM 51.3 °F - 50.0 °F 95% 29.88 in 7.0 mi Calm Calm - 0.03 in Rain Rain
7:35 AM 51.1 °F - 50.2 °F 97% 29.89 in 5.0 mi NW 4.6 mph - 0.06 in Rain Rain
7:55 AM 50.5 °F - 48.9 °F 94% 29.92 in 5.0 mi North 11.5 mph 19.6 mph 0.13 in Rain Heavy Rain
8:15 AM 47.1 °F - 45.0 °F 92% 29.93 in 7.0 mi North 8.1 mph 16.1 mph 0.04 in Rain Rain
8:35 AM 44.4 °F 39.0 °F 41.5 °F 90% 29.95 in 10.0 mi North 10.4 mph - 0.07 in Rain Rain
8:55 AM 43.2 °F 37.4 °F 40.8 °F 91% 29.97 in 10.0 mi North 10.4 mph - 0.09 in Rain Rain
9:15 AM 41.9 °F 36.3 °F 38.7 °F 88% 29.98 in 10.0 mi NNW 9.2 mph - 0.01 in Rain Light Rain
9:35 AM 41.5 °F 35.9 °F 38.5 °F 89% 29.99 in 10.0 mi North 9.2 mph - 0.02 in Rain Light Rain
9:55 AM 40.3 °F 34.9 °F 37.0 °F 88% 29.99 in 10.0 mi North 8.1 mph - 0.02 in Rain Light Rain
10:35 AM 40.1 °F 35.3 °F 36.7 °F 88% 30.01 in 10.0 mi NNW 6.9 mph - 0.01 in Rain Light Rain
10:55 AM 40.1 °F 35.3 °F 37.0 °F 89% 30.00 in 10.0 mi North 6.9 mph - 0.02 in Rain Light Rain
11:15 AM 39.6 °F 35.4 °F 36.0 °F 87% 30.01 in 10.0 mi NNW 5.8 mph - N/A Rain Light Rain
11:55 AM 39.4 °F 32.7 °F 34.2 °F 82% 30.01 in 10.0 mi North 10.4 mph - N/A   Overcast
12:15 PM 39.6 °F 34.0 °F 32.2 °F 75% 30.00 in 10.0 mi North 8.1 mph 17.3 mph N/A   Overcast
12:35 PM 40.1 °F 32.7 °F 32.2 °F 73% 30.00 in 10.0 mi North 12.7 mph 17.3 mph N/A   Overcast
12:55 PM 40.1 °F 33.6 °F 30.6 °F 69% 30.01 in 10.0 mi North 10.4 mph 18.4 mph N/A   Overcast
1:15 PM 40.1 °F 34.7 °F 31.5 °F 71% 30.01 in 10.0 mi North 8.1 mph - N/A   Overcast
1:55 PM 42.1 °F 34.9 °F 30.2 °F 63% 30.01 in 10.0 mi NNE 13.8 mph - N/A   Scattered Clouds
2:15 PM 43.2 °F 39.0 °F 29.1 °F 58% 30.01 in 10.0 mi North 6.9 mph 18.4 mph N/A   Clear
2:35 PM 43.3 °F 36.8 °F 24.8 °F 48% 30.01 in 10.0 mi North 12.7 mph 19.6 mph N/A   Clear
2:55 PM 43.7 °F 36.6 °F 24.6 °F 47% 30.02 in 10.0 mi North 15.0 mph - N/A   Clear
3:15 PM 42.8 °F 36.2 °F 21.2 °F 42% 30.03 in 10.0 mi North 12.7 mph 23.0 mph N/A   Clear
3:35 PM 42.3 °F 33.8 °F 17.2 °F 37% 30.04 in 10.0 mi NNW 18.4 mph 24.2 mph N/A   Clear
3:55 PM 41.4 °F 35.7 °F 17.1 °F 38% 30.05 in 10.0 mi NNW 9.2 mph 24.2 mph N/A   Clear
4:15 PM 40.1 °F 31.6 °F 17.4 °F 40% 30.07 in 10.0 mi NNW 16.1 mph 20.7 mph N/A   Clear
4:35 PM 38.8 °F 32.6 °F 17.8 °F 43% 30.08 in 10.0 mi North 9.2 mph - N/A   Clear
4:55 PM 36.9 °F 29.1 °F 15.8 °F 42% 30.09 in 10.0 mi North 11.5 mph 16.1 mph N/A   Clear
5:15 PM 35.1 °F 26.4 °F 16.3 °F 47% 30.10 in 10.0 mi NNW 12.7 mph 18.4 mph N/A   Clear
5:35 PM 33.6 °F 25.6 °F 15.6 °F 48% 30.12 in 10.0 mi North 10.4 mph - N/A   Clear
5:55 PM 32.9 °F 25.9 °F 15.8 °F 49% 30.14 in 10.0 mi NNW 8.1 mph - N/A   Clear
6:15 PM 32.0 °F 22.1 °F 14.9 °F 49% 30.15 in 10.0 mi NNW 13.8 mph 19.6 mph N/A   Clear
6:35 PM 31.8 °F 23.9 °F 14.9 °F 50% 30.16 in 10.0 mi NNW 9.2 mph - N/A   Clear
6:55 PM 30.9 °F 24.3 °F 15.1 °F 52% 30.17 in 10.0 mi NNW 6.9 mph - N/A   Clear
7:15 PM 30.2 °F 24.3 °F 15.8 °F 55% 30.18 in 10.0 mi North 5.8 mph - N/A   Clear
7:35 PM 29.7 °F 24.7 °F 16.3 °F 58% 30.19 in 10.0 mi North 4.6 mph - N/A   Clear
7:55 PM 29.7 °F 22.8 °F 15.8 °F 56% 30.19 in 10.0 mi North 6.9 mph - N/A   Clear
8:15 PM 29.7 °F 23.7 °F 15.6 °F 56% 30.20 in 10.0 mi North 5.8 mph - N/A   Clear
8:35 PM 29.3 °F 24.3 °F 15.8 °F 57% 30.21 in 10.0 mi North 4.6 mph - N/A   Clear
8:55 PM 29.5 °F 22.5 °F 15.1 °F 55% 30.23 in 10.0 mi North 6.9 mph - N/A   Clear
9:15 PM 29.3 °F 24.3 °F 14.7 °F 55% 30.24 in 10.0 mi North 4.6 mph - N/A   Clear
9:35 PM 29.3 °F 22.3 °F 14.5 °F 54% 30.24 in 10.0 mi North 6.9 mph - N/A   Clear
9:55 PM 28.4 °F 22.2 °F 14.9 °F 57% 30.25 in 10.0 mi North 5.8 mph - N/A   Clear
10:15 PM 27.3 °F - 15.8 °F 62% 30.25 in 10.0 mi Calm Calm - N/A   Clear
10:35 PM 27.1 °F 20.7 °F 15.8 °F 62% 30.25 in 10.0 mi North 5.8 mph - N/A   Clear
10:55 PM 27.3 °F 22.0 °F 16.0 °F 62% 30.26 in 10.0 mi NNE 4.6 mph - N/A   Clear
11:15 PM 26.6 °F 20.0 °F 15.8 °F 64% 30.26 in 10.0 mi NNE 5.8 mph - N/A   Clear
11:35 PM 26.6 °F 18.2 °F 15.3 °F 62% 30.26 in 10.0 mi NNE 8.1 mph - N/A   Clear
11:55 PM 27.0 °F 18.7 °F 14.2 °F 59% 30.27 in 10.0 mi North 8.1 mph - N/A   Clear